sat.trackr.live / text

‹ back to catalog

STARLINK-30193

NORAD 57414 · 2023-102L

PAYLOAD ACTIVE UNKNOWN

§ Identity

Operator
Country
US
Launch date
2023-07-20
Launch site
AFWTR
Launch vehicle
Mass (kg)
RCS (m²)

Purposes: comms

External: N2YO · Heavens-Above · Gunter

§ Orbital elements

Epoch: 2026-09-20T13:24:08.625888Z

Period
91.82 min
Inclination
42.9976°
Eccentricity
0.0008819
Mean motion
15.68258960 rev/d
Perigee alt
357.9 km
Apogee alt
369.8 km
Semi-major
6,742.0 km
B*
5.9542e-4
RAAN
201.7797°
Arg perigee
178.4523°
Mean anomaly
181.6372°
Rev number
17,634

§ Raw data

STARLINK-301931 57414U 23102L   26263.55843317  .00068907  00000+0  59542-3 0  99912 57414  42.9976 201.7797 0008819 178.4523 181.6372 15.68258960176348

JSON: /api/v1/satellites/57414 · /tle

For live sub-satellite position, see the globe view (requires WebGL).

§ Visibility from observer

Set your observer location to see the next 7 days of passes ≥ 10°. The values pass through the URL so the page stays shareable.

No JS? Fill the form by hand. The geolocation button needs JavaScript.